Regional Weather Roundup
Issued by NWS Green Bay, WI

Home | Current Version | Previous Version | Text Only | Print | Product List | Glossary On
Versions: 1 2 3 4 5 6 7 8 9 10 11 12 13 14 15 16 17 18 19 20 21 22 23 24 25 26 27 28 29 30 31 32 33 34 35 36 37 38 39 40 41 42 43 44 45 46 47 48 49 50
000
ASUS43 KGRB 011559
RWRGRB

NORTH-CENTRAL AND NORTHEAST WISCONSIN REGIONAL WEATHER ROUNDUP
NATIONAL WEATHER SERVICE GREEN BAY WI
1100 AM CDT FRI AUG 01 2014

WIZ005-009-010>012-018-019-011700-
NORTH CENTRAL WISCONSIN

CITY           SKY/WX    TMP DP  RH WIND       PRES   REMARKS
IRONWOOD       NOT AVBL
MANITOWISH WTR NOT AVBL
ARBOR VITAE    NOT AVBL
EAGLE RIVER    NOT AVBL
LAND O LAKES   NOT AVBL
RHINELANDER    SUNNY     72  54  53 N6        30.09S
PHILLIPS       NOT AVBL
ANTIGO         NOT AVBL
TOMAHAWK       NOT AVBL
MERRILL        NOT AVBL
$$

WIZ013-073-011700-
NORTHEAST WISCONSIN

CITY           SKY/WX    TMP DP  RH WIND       PRES   REMARKS
IRON MOUNTAIN  SUNNY     74  57  55 CALM      30.05S
MARINETTE      SUNNY     72  61  68 SE5       30.04S
$$

WIZ017-030-035>037-045-011700-
CENTRAL WISCONSIN

CITY           SKY/WX    TMP DP  RH WIND       PRES   REMARKS
MEDFORD        NOT AVBL
WAUSAU         SUNNY     74  62  66 VRB3      30.06S
MOSINEE        MOSUNNY   73  63  68 CALM      30.08S
MARSHFIELD     PTSUNNY   72  62  71 CALM      30.08R
WISC RAPIDS    MOSUNNY   66  62  87 CALM      30.09S
STEVENS POINT  NOT AVBL
WAUPACA        NOT AVBL
SHAWANO        NOT AVBL
CLINTONVILLE   NOT AVBL
$$

WIZ038-039-048-051-011700-
FOX VALLEY

CITY           SKY/WX    TMP DP  RH WIND       PRES   REMARKS
NWS GREEN BAY  SUNNY     75  64  68 VRB5      30.05F
APPLETON       SUNNY     73  61  64 CALM        N/A
OSHKOSH        PTSUNNY   74  63  68 CALM      30.06S
FOND DU LAC    SUNNY     77  62  59 W5        30.07S
$$

WIZ022-050-052-011700-
EAST CENTRAL WISCONSIN

CITY           SKY/WX    TMP DP  RH WIND       PRES   REMARKS
STURGEON BAY   SUNNY     73  63  68 W3        30.07R
MANITOWOC      NOT AVBL
SHEBOYGAN      PTSUNNY   77  60  55 W8        30.07R
$$

LMZ563-521-522-541>543-011700-
LAKESHORE

STATION/POSITION TIME  TEMP    WIND        PRES    VSBY  WAVE
                       AIR SEA DIR/SP/G                  HT/PER
                 (UTC) (F)     (DEG/KT/KT) (MB)    (MI)  (FT/S)
SHEBOYGAN LKSHOR 1500   71     170/  6/  7 1017.8R
KEWAUNEE LKSHORE 1500   63      80/  2/  3 1017.1R
ALGOMA MARINA    1500             CALM       N/A
TWO RIVERS CG    1500   64 63                N/A    3 1/2  1
NORTHPORT PIER   1500   66     100/  4/  5 1017.6S
N MID LAKE BUOY  1500   58 56  170/  4/  4 1017.5R         1
S GREEN BAY BUOY 1500   65 68  220/  6     1018.4S
CHAMBERS ISLAND  1500   71     320/  2/  4 1017.6R
MENOMINEE LKSHOR 1500   68      60/  2/  3 1018.1R
$$



USA.gov is the U.S. government's official web portal to all federal, state and local government web resources and services.